Track STARLINK-3891 now! 10-day predictions STARLINK-3891 is classified as:
1 52650U 22052BE 22180.58334491 .00058521 00000-0 41824-3 0 9992 2 52650 53.2127 213.1756 0003099 11.8198 216.7152 15.73209532 1309